Location: Unspecified
(34.4950°S, 58.5160°W)
Time: 00:06:26
(UTC+00:00)

Cosmos 2369 - Pass Details

Date: 19 April 2026
Orbit: 837 x 855 km, 71.0° (Epoch: 16 May)

Event Time Altitude Azimuth Distance (km) Brightness Sun altitude
Exits shadow 08:31:27 46° 236° (WSW) 1,146 4.0 -23.1°
Drops below altitude 10° 08:36:44 10° 172° (S) 2,508 6.3 -22.0°
Sets 08:39:18 0° 165° (SSE) 3,448 7.1 -21.5°
